ONEWEB-0703, 56724

Orbit data source: Space-Track

ONEWEB-0703, 56724 is a payload satellite owned by One Web (NAA) (UK) in LEO that was launched on Sat, 20 May 2023 UTC via an FALCON 9 launch vehicle from the Air Force Western Test Range (AFWTR). Payload-class satellites include a variety of spacecraft equipped with specific instruments for various scientific and technological missions. These include communications satellites like Starlink; space stations such as the ISS; scientific satellites like the Hubble; Earth observation satellites from companies like Planet Labs, Umbra, and HawkEye 360; GPS; miniature CubeSats for education and research; and military/defense satellites.

Loading next visibility...
Identifier
56724, 2023-068Q
Orbit
LEO
Country
Flag of UKUK
Related business
Manufacturer
One Web
Mission
Operational Commercial Communications
Bus & Motor
ARROW, Unknown motor
Mass
148 kg wet, ~140 kg dry
Launch date (UTC)
2023-05-20 (3 years ago)
Launch vehicle
FALCON 9
Launch site
Air Force Western Test Range (AFWTR)
Object type
Payload
Rocket body
Debris
Shape & HBR
Trap Box + 2 Pan, 6.7 m
Radar Cross Section
3.464 m², Large (>1 m²)

Expand to show TLE details & history
Last TLE update: 2 days ago

TLE from 2 days ago
0 ONEWEB-0703
1 56724U 23068Q   26171.30049838  .00002226  00000-0  58757-2 0  9991
2 56724  87.8984 258.5840 0001380  94.4542 265.6746 13.15571505149667
Epoch: 2026-06-20T07:12Z
TLE epoch observation values (Epoch: 2026-06-20T07:12:43.060Z)
Latitude
Longitude
-118.11251°
Altitude
1,204.657 km
Speed
7.252 km/s
True Right ascension
17h 14m 20s
True Declination
0° 00' 00"
Sunlit
Object was in full shadow at epoch
Visualization orbit readout
Latitude
Unknown
Longitude
Unknown
Altitude
Unknown
Speed
Unknown
Apparent Right ascension
Unknown
Apparent Declination
Unknown
Sunlit
N/A
Visualization observer readout
Local Sidereal Time
21:32:48
Azimuth
Unknown
Elevation
Unknown
Doppler factor
Unknown
Orbital elements
Apogee altitude
1,199.84 km
Perigee altitude
1,197.749 km
Semi-major axis
7,576.932 km
Eccentricity
0.00014
Inclination
87.8984°
RAAN
258.584°
Arg. of periapsis
94.4542°
True anomaly
265.65883°
Mean anomaly
265.6746°
Eccentric anomaly
265.66672°
Mean motion
3.29081 °/min
Orbital period
109.4 mins
BSTAR
0.0058757
Loading maneuver chart data...
Computing Atmospheric mass density...
Loading historical data...
Loading historical data...
Loading historical data...
Loading historical data...
Loading historical data...
Loading historical data...
Loading historical data...

Documentation

Showing up to 5 results
|